UAE24Q OTHH-HECA

Flight info

Callsign UAE24Q
Flight time 2h 40m
Altitude 40000
Route TULUB B457 NARMI N697 HIL T540 ENABI L550 NOVPA N697 MENLI L677 CVO
Aircraft B77L/H-SDE1E2E3FGHIJ2J3J4J5M1RWXY/LB1D1

Departure

Time 2026-05-05 21:52
Airport Hamad International Airport (OTHH)

Arrival

Time 2026-05-06 00:32
Airport Cairo International Airport (HECA)
Time Latitude Longitude Altitude Speed Heading
2026-05-05 21:42 25.28321 51.61129 34 ft 0 kts 68°
2026-05-05 21:47 25.28321 51.61128 34 ft 1 kts 68°
2026-05-05 21:47 25.28310 51.61104 33 ft 4 kts 58°
2026-05-05 21:48 25.28294 51.61081 33 ft 4 kts 40°
2026-05-05 21:48 25.28272 51.61066 31 ft 4 kts
2026-05-05 21:48 25.28254 51.61067 33 ft 0 kts 339°
2026-05-05 21:49 25.28304 51.61046 34 ft 24 kts 339°
2026-05-05 21:49 25.28439 51.61096 34 ft 19 kts
2026-05-05 21:50 25.28526 51.61123 33 ft 13 kts 47°
2026-05-05 21:50 25.28617 51.61122 34 ft 15 kts 339°
2026-05-05 21:50 25.28750 51.61062 34 ft 27 kts 338°
2026-05-05 21:50 25.28929 51.60983 33 ft 28 kts 338°
2026-05-05 21:51 25.29109 51.60904 33 ft 28 kts 339°
2026-05-05 21:51 25.29289 51.60824 33 ft 28 kts 337°
2026-05-05 21:51 25.29445 51.60812 32 ft 23 kts 50°
2026-05-05 21:51 25.29427 51.60967 30 ft 22 kts 148°
2026-05-05 21:52 25.28194 51.61508 149 ft 187 kts 158°
2026-05-05 21:52 25.26949 51.62055 1364 ft 185 kts 156°
2026-05-05 21:52 25.25819 51.62583 2727 ft 166 kts 145°
2026-05-05 21:53 25.25099 51.63613 3504 ft 188 kts 105°
2026-05-05 21:53 25.25230 51.65139 3953 ft 220 kts 65°
2026-05-05 21:53 25.26291 51.66524 4273 ft 258 kts 33°
2026-05-05 21:53 25.27916 51.67481 4806 ft 268 kts 24°
2026-05-05 21:54 25.29643 51.68334 4975 ft 272 kts 23°
2026-05-05 21:54 25.31380 51.69186 4997 ft 274 kts 24°
2026-05-05 21:54 25.33109 51.70023 5009 ft 272 kts 17°
2026-05-05 21:54 25.34953 51.70041 5736 ft 271 kts 341°
2026-05-05 21:55 25.36614 51.69050 6814 ft 271 kts 323°
2026-05-05 21:55 25.37942 51.67523 7844 ft 278 kts 308°
2026-05-05 21:55 25.39112 51.65817 9141 ft 278 kts 307°
2026-05-05 21:55 25.40279 51.64087 10322 ft 282 kts 307°
2026-05-05 21:56 25.41484 51.62296 11234 ft 302 kts 308°
2026-05-05 21:56 25.42819 51.60324 11684 ft 339 kts 308°
2026-05-05 21:56 25.44315 51.58128 12196 ft 370 kts 308°
2026-05-05 21:56 25.45873 51.55859 13353 ft 378 kts 308°
2026-05-05 21:57 25.47476 51.53528 14570 ft 383 kts 308°
2026-05-05 21:57 25.49109 51.51156 15709 ft 391 kts 307°
2026-05-05 21:57 25.50780 51.48734 16790 ft 400 kts 307°
2026-05-05 21:57 25.52487 51.46264 17860 ft 408 kts 307°
2026-05-05 21:58 25.54229 51.43744 18824 ft 415 kts 307°
2026-05-05 21:58 25.55993 51.41193 19856 ft 419 kts 306°
2026-05-05 21:58 25.57755 51.38646 20890 ft 422 kts 306°
2026-05-05 21:58 25.59555 51.36041 21909 ft 427 kts 306°
2026-05-05 21:59 25.61369 51.33414 22888 ft 432 kts 305°
2026-05-05 21:59 25.63209 51.30747 23664 ft 439 kts 305°
2026-05-05 21:59 25.65079 51.28035 24435 ft 443 kts 304°
2026-05-05 21:59 25.66957 51.25312 25302 ft 445 kts 304°
2026-05-05 22:00 25.68846 51.22572 26172 ft 447 kts 304°
2026-05-05 22:00 25.70711 51.19865 26982 ft 450 kts 304°
2026-05-05 22:00 25.72622 51.17088 27742 ft 454 kts 303°
2026-05-05 22:00 25.74552 51.14281 28475 ft 458 kts 303°
2026-05-05 22:01 25.76496 51.11453 29216 ft 461 kts 303°
2026-05-05 22:01 25.78423 51.08650 29957 ft 462 kts 303°
2026-05-05 22:01 25.80379 51.05802 30509 ft 466 kts 302°
2026-05-05 22:01 25.82352 51.02926 30956 ft 470 kts 302°
2026-05-05 22:02 25.84337 51.00031 31523 ft 471 kts 302°
2026-05-05 22:02 25.86323 50.97135 32161 ft 470 kts 302°
2026-05-05 22:02 25.88304 50.94246 32836 ft 469 kts 301°
2026-05-05 22:02 25.90286 50.91353 33496 ft 469 kts 301°
2026-05-05 22:03 25.92238 50.88501 34085 ft 468 kts 301°
2026-05-05 22:03 25.94203 50.85629 34756 ft 464 kts 301°
2026-05-05 22:03 25.96156 50.82775 35470 ft 460 kts 300°
2026-05-05 22:03 25.98091 50.79942 36099 ft 458 kts 300°
2026-05-05 22:04 25.99991 50.77158 36654 ft 457 kts 300°
2026-05-05 22:04 26.01911 50.74340 37233 ft 456 kts 300°
2026-05-05 22:04 26.03827 50.71529 37817 ft 454 kts 300°
2026-05-05 22:04 26.05732 50.68731 38422 ft 452 kts 300°
2026-05-05 22:05 26.07631 50.65942 38878 ft 451 kts 300°
2026-05-05 22:05 26.09526 50.63155 39286 ft 451 kts 300°
2026-05-05 22:05 26.11420 50.60368 39690 ft 451 kts 300°
2026-05-05 22:06 26.15227 50.54755 39739 ft 458 kts 300°
2026-05-05 22:06 26.19087 50.49068 39749 ft 465 kts 300°
2026-05-05 22:07 26.23042 50.43228 39751 ft 476 kts 300°
2026-05-05 22:07 26.27002 50.37388 39751 ft 471 kts 300°
2026-05-05 22:07 26.28861 50.34425 39752 ft 460 kts 295°
2026-05-05 22:08 26.30457 50.31359 39753 ft 455 kts 291°
2026-05-05 22:08 26.32949 50.24958 39739 ft 447 kts 283°
2026-05-05 22:09 26.34895 50.18379 39759 ft 446 kts 282°
2026-05-05 22:09 26.36786 50.11808 39753 ft 447 kts 282°
2026-05-05 22:10 26.38695 50.05195 39745 ft 448 kts 282°
2026-05-05 22:10 26.40617 49.98573 39735 ft 448 kts 282°
2026-05-05 22:11 26.42538 49.91963 39746 ft 448 kts 282°
2026-05-05 22:11 26.44448 49.85380 39746 ft 448 kts 282°
2026-05-05 22:12 26.46362 49.78767 39746 ft 447 kts 282°
2026-05-05 22:12 26.48277 49.72139 39748 ft 447 kts 282°
2026-05-05 22:13 26.50181 49.65535 39729 ft 447 kts 282°
2026-05-05 22:13 26.52075 49.58957 39720 ft 446 kts 282°
2026-05-05 22:14 26.53654 49.53462 39718 ft 446 kts 282°
2026-05-05 22:14 26.55552 49.46841 39725 ft 445 kts 281°
2026-05-05 22:15 26.57425 49.40296 39730 ft 445 kts 281°
2026-05-05 22:15 26.59311 49.33693 39738 ft 445 kts 281°
2026-05-05 22:16 26.61186 49.27116 39737 ft 445 kts 281°
2026-05-05 22:16 26.63054 49.20553 39740 ft 445 kts 281°
2026-05-05 22:17 26.64928 49.13955 39744 ft 445 kts 281°
2026-05-05 22:17 26.66798 49.07358 39736 ft 445 kts 281°
2026-05-05 22:18 26.68667 49.00752 39748 ft 445 kts 281°
2026-05-05 22:18 26.70520 48.94186 39756 ft 445 kts 281°
2026-05-05 22:19 26.72382 48.87578 39756 ft 444 kts 281°
2026-05-05 22:19 26.74240 48.80976 39757 ft 444 kts 281°
2026-05-05 22:20 26.76083 48.74409 39762 ft 443 kts 281°
2026-05-05 22:20 26.77918 48.67857 39761 ft 443 kts 281°
2026-05-05 22:21 26.79763 48.61260 39769 ft 443 kts 281°
2026-05-05 22:21 26.81602 48.54667 39776 ft 443 kts 281°
2026-05-05 22:22 26.83423 48.48128 39780 ft 443 kts 281°
2026-05-05 22:22 26.85255 48.41537 39792 ft 442 kts 281°
2026-05-05 22:23 26.87075 48.34974 39791 ft 442 kts 281°
2026-05-05 22:23 26.88898 48.28389 39800 ft 442 kts 280°
2026-05-05 22:24 26.90721 48.21792 39825 ft 442 kts 280°
2026-05-05 22:24 26.92524 48.15254 39813 ft 441 kts 280°
2026-05-05 22:25 26.94338 48.08661 39811 ft 440 kts 280°
2026-05-05 22:25 26.96131 48.02130 39819 ft 440 kts 280°
2026-05-05 22:26 26.97928 47.95573 39819 ft 440 kts 280°
2026-05-05 22:26 26.99726 47.88999 39846 ft 440 kts 280°
2026-05-05 22:27 27.01508 47.82468 39830 ft 440 kts 280°
2026-05-05 22:27 27.03299 47.75894 39826 ft 440 kts 280°
2026-05-05 22:28 27.05084 47.69328 39835 ft 440 kts 280°
2026-05-05 22:28 27.06859 47.62788 39840 ft 439 kts 280°
2026-05-05 22:29 27.08637 47.56218 39841 ft 440 kts 280°
2026-05-05 22:29 27.10407 47.49668 39851 ft 440 kts 279°
2026-05-05 22:30 27.12184 47.43079 39848 ft 440 kts 279°
2026-05-05 22:30 27.13944 47.36541 39858 ft 439 kts 279°
2026-05-05 22:31 27.15712 47.29957 39860 ft 439 kts 279°
2026-05-05 22:31 27.17466 47.23412 39859 ft 440 kts 279°
2026-05-05 22:32 27.19227 47.16826 39872 ft 440 kts 279°
2026-05-05 22:32 27.20989 47.10227 39870 ft 439 kts 279°
2026-05-05 22:33 27.22733 47.03678 39874 ft 439 kts 279°
2026-05-05 22:33 27.24486 46.97084 39895 ft 439 kts 279°
2026-05-05 22:34 27.26229 46.90517 39884 ft 438 kts 279°
2026-05-05 22:34 27.27954 46.84002 39895 ft 436 kts 279°
2026-05-05 22:35 27.29684 46.77455 39878 ft 435 kts 279°
2026-05-05 22:35 27.31404 46.70931 39887 ft 434 kts 279°
2026-05-05 22:36 27.33108 46.64452 39897 ft 433 kts 279°
2026-05-05 22:36 27.34813 46.57954 39891 ft 433 kts 279°
2026-05-05 22:37 27.36507 46.51487 39923 ft 433 kts 279°
2026-05-05 22:37 27.38208 46.44983 39905 ft 432 kts 279°
2026-05-05 22:38 27.39899 46.38502 39908 ft 431 kts 279°
2026-05-05 22:38 27.41583 46.32038 39913 ft 430 kts 279°
2026-05-05 22:39 27.43261 46.25579 39911 ft 429 kts 279°
2026-05-05 22:39 27.44925 46.19160 39913 ft 428 kts 279°
2026-05-05 22:40 27.46594 46.12709 39923 ft 427 kts 279°
2026-05-05 22:40 27.48248 46.06303 39919 ft 426 kts 279°
2026-05-05 22:41 27.49900 45.99895 39921 ft 425 kts 279°
2026-05-05 22:41 27.51537 45.93525 39906 ft 425 kts 279°
2026-05-05 22:42 27.53184 45.87105 39920 ft 426 kts 279°
2026-05-05 22:42 27.54829 45.80679 39930 ft 426 kts 279°
2026-05-05 22:43 27.56462 45.74290 39912 ft 426 kts 279°
2026-05-05 22:43 27.58101 45.67865 39920 ft 425 kts 278°
2026-05-05 22:44 27.59723 45.61489 39924 ft 425 kts 278°
2026-05-05 22:44 27.61355 45.55062 39924 ft 425 kts 278°
2026-05-05 22:45 27.62984 45.48633 39931 ft 426 kts 278°
2026-05-05 22:45 27.64609 45.42203 39923 ft 426 kts 278°
2026-05-05 22:46 27.66225 45.35801 39921 ft 426 kts 278°
2026-05-05 22:46 27.67850 45.29348 39929 ft 426 kts 278°
2026-05-05 22:47 27.69460 45.22941 39932 ft 426 kts 278°
2026-05-05 22:47 27.71077 45.16490 39922 ft 427 kts 278°
2026-05-05 22:48 27.72694 45.10028 39927 ft 427 kts 278°
2026-05-05 22:48 27.74295 45.03611 39928 ft 427 kts 278°
2026-05-05 22:49 27.75906 44.97145 39941 ft 428 kts 278°
2026-05-05 22:49 27.77517 44.90665 39931 ft 428 kts 278°
2026-05-05 22:50 27.79117 44.84212 39934 ft 428 kts 278°
2026-05-05 22:50 27.80721 44.77733 39934 ft 428 kts 278°
2026-05-05 22:51 27.82325 44.71240 39938 ft 428 kts 278°
2026-05-05 22:51 27.83923 44.64755 39938 ft 428 kts 278°
2026-05-05 22:52 27.85509 44.58303 39950 ft 428 kts 278°
2026-05-05 22:52 27.87095 44.51837 39941 ft 428 kts 278°
2026-05-05 22:53 27.88688 44.45329 39947 ft 428 kts 277°
2026-05-05 22:53 27.90278 44.38821 39952 ft 429 kts 277°
2026-05-05 22:54 27.91854 44.32351 39948 ft 429 kts 277°
2026-05-05 22:54 27.93440 44.25829 39945 ft 429 kts 277°
2026-05-05 22:55 27.95014 44.19342 39955 ft 430 kts 277°
2026-05-05 22:55 27.96597 44.12804 39950 ft 430 kts 277°
2026-05-05 22:56 27.98175 44.06271 39950 ft 430 kts 277°
2026-05-05 22:56 27.99743 43.99768 39961 ft 431 kts 277°
2026-05-05 22:57 28.01321 43.93204 39953 ft 431 kts 277°
2026-05-05 22:57 28.02884 43.86687 39956 ft 431 kts 277°
2026-05-05 22:58 28.04455 43.80126 39967 ft 432 kts 277°
2026-05-05 22:58 28.06025 43.73552 39961 ft 432 kts 277°
2026-05-05 22:59 28.07590 43.66987 39961 ft 431 kts 277°
2026-05-05 22:59 28.09139 43.60473 39973 ft 431 kts 277°
2026-05-05 23:00 28.11471 43.50635 39976 ft 430 kts 277°
2026-05-05 23:00 28.13011 43.44119 39978 ft 430 kts 277°
2026-05-05 23:01 28.14559 43.37552 39986 ft 431 kts 277°
2026-05-05 23:01 28.16098 43.31013 39984 ft 431 kts 277°
2026-05-05 23:02 28.17391 43.25508 39983 ft 430 kts 277°
2026-05-05 23:02 28.18919 43.18986 40003 ft 430 kts 277°
2026-05-05 23:03 28.20456 43.12411 39989 ft 430 kts 277°
2026-05-05 23:03 28.21987 43.05847 40001 ft 430 kts 277°
2026-05-05 23:04 28.23507 42.99311 40001 ft 430 kts 277°
2026-05-05 23:04 28.25026 42.92767 39993 ft 430 kts 277°
2026-05-05 23:05 28.26553 42.86167 40356 ft 433 kts 277°
2026-05-05 23:05 28.27317 42.82867 40726 ft 431 kts 277°
2026-05-05 23:05 28.28077 42.79580 41073 ft 430 kts 277°
2026-05-05 23:06 28.28835 42.76297 41398 ft 429 kts 277°
2026-05-05 23:06 28.29592 42.73011 41712 ft 429 kts 277°
2026-05-05 23:06 28.30338 42.69767 41989 ft 429 kts 277°
2026-05-05 23:06 28.31092 42.66485 42292 ft 429 kts 277°
2026-05-05 23:07 28.31846 42.63198 42598 ft 429 kts 278°
2026-05-05 23:07 28.32597 42.59922 42890 ft 430 kts 278°
2026-05-05 23:07 28.34111 42.53289 43000 ft 436 kts 278°
2026-05-05 23:08 28.35627 42.46654 43006 ft 435 kts 278°
2026-05-05 23:08 28.37139 42.40037 43035 ft 430 kts 278°
2026-05-05 23:09 28.38630 42.33477 43014 ft 428 kts 278°
2026-05-05 23:09 28.40114 42.26930 43019 ft 427 kts 278°
2026-05-05 23:10 28.41581 42.20437 43018 ft 427 kts 278°
2026-05-05 23:10 28.43055 42.13897 43027 ft 427 kts 277°
2026-05-05 23:11 28.44527 42.07356 43022 ft 427 kts 277°
2026-05-05 23:11 28.45992 42.00830 43021 ft 428 kts 277°
2026-05-05 23:12 28.47463 41.94262 43027 ft 428 kts 277°
2026-05-05 23:12 28.48931 41.87696 43023 ft 428 kts 277°
2026-05-05 23:13 28.50384 41.81174 43022 ft 428 kts 277°
2026-05-05 23:13 28.51846 41.74603 43038 ft 428 kts 277°
2026-05-05 23:14 28.53301 41.68040 43029 ft 428 kts 277°
2026-05-05 23:14 28.54755 41.61472 43028 ft 427 kts 277°
2026-05-05 23:15 28.57777 41.47763 43056 ft 425 kts 277°
2026-05-05 23:15 28.63497 41.21618 43052 ft 424 kts 277°
2026-05-05 23:16 28.69104 40.95735 43043 ft 423 kts 276°
2026-05-05 23:16 28.74684 40.69722 43054 ft 422 kts 276°
2026-05-05 23:17 28.80181 40.43838 43069 ft 422 kts 276°
2026-05-05 23:17 28.85395 40.19042 43057 ft 424 kts 276°
2026-05-05 23:18 28.88585 40.03748 43063 ft 424 kts 276°
2026-05-05 23:18 28.89938 39.97232 43069 ft 425 kts 276°
2026-05-05 23:19 28.91303 39.90646 43061 ft 425 kts 276°
2026-05-05 23:19 28.92664 39.84067 43053 ft 425 kts 276°
2026-05-05 23:20 28.94022 39.77476 43065 ft 426 kts 276°
2026-05-05 23:20 28.95376 39.70888 43063 ft 427 kts 276°
2026-05-05 23:21 28.97527 39.60388 43058 ft 427 kts 276°
2026-05-05 23:21 28.98677 39.54762 43073 ft 428 kts 276°
2026-05-05 23:22 29.00016 39.48187 43072 ft 428 kts 276°
2026-05-05 23:22 29.01362 39.41566 43067 ft 428 kts 276°
2026-05-05 23:23 29.02704 39.34940 43089 ft 428 kts 276°
2026-05-05 23:23 29.04040 39.28334 43079 ft 428 kts 276°
2026-05-05 23:24 29.05375 39.21706 43068 ft 428 kts 276°
2026-05-05 23:24 29.06709 39.15073 43072 ft 428 kts 276°
2026-05-05 23:25 29.08039 39.08435 43086 ft 427 kts 276°
2026-05-05 23:25 29.10148 38.97883 43077 ft 427 kts 276°
2026-05-05 23:26 29.11018 38.91223 43086 ft 420 kts 268°
2026-05-05 23:26 29.11100 38.84573 43091 ft 417 kts 264°
2026-05-05 23:27 29.11048 38.77972 43078 ft 417 kts 264°
2026-05-05 23:27 29.11006 38.71337 43081 ft 417 kts 264°
2026-05-05 23:28 29.10970 38.64685 43094 ft 416 kts 264°
2026-05-05 23:28 29.10933 38.58082 43075 ft 417 kts 264°
2026-05-05 23:29 29.10893 38.51436 43079 ft 417 kts 264°
2026-05-05 23:29 29.10850 38.44789 43079 ft 418 kts 264°
2026-05-05 23:30 29.10803 38.38155 43074 ft 418 kts 264°
2026-05-05 23:30 29.10747 38.31491 43077 ft 418 kts 264°
2026-05-05 23:31 29.10685 38.24857 43080 ft 418 kts 264°
2026-05-05 23:31 29.10621 38.18196 43107 ft 418 kts 264°
2026-05-05 23:32 29.10554 38.11577 43075 ft 419 kts 264°
2026-05-05 23:32 29.10485 38.04904 43070 ft 419 kts 264°
2026-05-05 23:33 29.10412 37.98241 43061 ft 418 kts 264°
2026-05-05 23:33 29.10336 37.91580 43073 ft 419 kts 264°
2026-05-05 23:34 29.10256 37.84957 43062 ft 419 kts 264°
2026-05-05 23:34 29.10173 37.78279 43063 ft 419 kts 264°
2026-05-05 23:35 29.10087 37.71611 43069 ft 419 kts 264°
2026-05-05 23:35 29.09999 37.64976 43072 ft 419 kts 264°
2026-05-05 23:36 29.09906 37.58301 43063 ft 420 kts 264°
2026-05-05 23:36 29.09810 37.51619 43067 ft 419 kts 264°
2026-05-05 23:37 29.09745 37.44941 43068 ft 420 kts 265°
2026-05-05 23:37 29.09708 37.38251 43059 ft 421 kts 265°
2026-05-05 23:38 29.09667 37.31551 43056 ft 421 kts 265°
2026-05-05 23:38 29.09618 37.24902 43057 ft 421 kts 264°
2026-05-05 23:39 29.09564 37.18200 43065 ft 422 kts 265°
2026-05-05 23:39 29.09506 37.11484 43056 ft 422 kts 265°
2026-05-05 23:40 29.09416 37.01728 43056 ft 423 kts 264°
2026-05-05 23:40 29.09344 36.94341 43060 ft 423 kts 265°
2026-05-05 23:41 29.09274 36.87607 43055 ft 423 kts 265°
2026-05-05 23:41 29.09202 36.80930 43047 ft 423 kts 264°
2026-05-05 23:42 29.09126 36.74195 43085 ft 423 kts 264°
2026-05-05 23:42 29.09046 36.67460 43058 ft 423 kts 265°
2026-05-05 23:43 29.08963 36.60713 43039 ft 422 kts 264°
2026-05-05 23:43 29.08879 36.54034 43050 ft 422 kts 264°
2026-05-05 23:44 29.08788 36.47321 43063 ft 422 kts 264°
2026-05-05 23:44 29.08622 36.40619 43060 ft 422 kts 264°
2026-05-05 23:45 29.08426 36.33944 43060 ft 421 kts 264°
2026-05-05 23:45 29.08232 36.27229 43058 ft 421 kts 264°
2026-05-05 23:46 29.08041 36.20524 43070 ft 422 kts 264°
2026-05-05 23:46 29.07850 36.13857 43067 ft 422 kts 264°
2026-05-05 23:47 29.07654 36.07148 43056 ft 422 kts 264°
2026-05-05 23:47 29.07456 36.00439 43066 ft 422 kts 264°
2026-05-05 23:48 29.07254 35.93769 43047 ft 421 kts 264°
2026-05-05 23:48 29.07083 35.88160 43058 ft 421 kts 264°
2026-05-05 23:49 29.06876 35.81508 43074 ft 421 kts 264°
2026-05-05 23:49 29.06664 35.74815 43099 ft 422 kts 264°
2026-05-05 23:50 29.06449 35.68096 43082 ft 423 kts 264°
2026-05-05 23:50 29.06230 35.61371 43085 ft 423 kts 264°
2026-05-05 23:51 29.06009 35.54671 43085 ft 424 kts 264°
2026-05-05 23:51 29.05782 35.47911 43083 ft 425 kts 264°
2026-05-05 23:52 29.05552 35.41151 43075 ft 425 kts 264°
2026-05-05 23:52 29.05320 35.34443 43075 ft 424 kts 264°
2026-05-05 23:53 29.05083 35.27682 43072 ft 425 kts 264°
2026-05-05 23:53 29.04845 35.20974 43066 ft 424 kts 264°
2026-05-05 23:54 29.04602 35.14231 43063 ft 424 kts 264°
2026-05-05 23:54 29.04356 35.07483 43063 ft 424 kts 264°
2026-05-05 23:55 29.04106 35.00739 43066 ft 424 kts 264°
2026-05-05 23:55 29.03855 34.94037 43070 ft 425 kts 264°
2026-05-05 23:56 29.03599 34.87292 43054 ft 425 kts 264°
2026-05-05 23:56 29.03387 34.80529 43054 ft 426 kts 264°
2026-05-05 23:57 29.03262 34.73758 43056 ft 426 kts 265°
2026-05-05 23:57 29.03824 34.67005 43070 ft 432 kts 274°
2026-05-05 23:58 29.05150 34.60249 43081 ft 439 kts 281°
2026-05-05 23:58 29.07091 34.53598 43082 ft 442 kts 282°
2026-05-05 23:59 29.09078 34.46997 43120 ft 442 kts 282°
2026-05-05 23:59 29.11054 34.40326 43099 ft 441 kts 282°
2026-05-06 00:00 29.13005 34.33655 43095 ft 441 kts 282°
2026-05-06 00:00 29.14932 34.27040 43101 ft 441 kts 282°
2026-05-06 00:01 29.16869 34.20381 43117 ft 440 kts 282°
2026-05-06 00:01 29.18797 34.13738 43109 ft 440 kts 282°
2026-05-06 00:02 29.20727 34.07077 43110 ft 440 kts 282°
2026-05-06 00:02 29.22641 34.00456 43105 ft 440 kts 282°
2026-05-06 00:03 29.24562 33.93800 43104 ft 440 kts 282°
2026-05-06 00:03 29.26484 33.87129 43110 ft 440 kts 282°
2026-05-06 00:04 29.28392 33.80494 43103 ft 441 kts 282°
2026-05-06 00:04 29.30308 33.73818 43103 ft 441 kts 282°
2026-05-06 00:05 29.33183 33.63772 43103 ft 442 kts 282°
2026-05-06 00:06 29.35099 33.57061 43109 ft 443 kts 282°
2026-05-06 00:06 29.37114 33.49990 43102 ft 443 kts 282°
2026-05-06 00:07 29.40314 33.38725 43100 ft 443 kts 282°
2026-05-06 00:07 29.42220 33.31995 43096 ft 443 kts 282°
2026-05-06 00:08 29.44109 33.25309 43098 ft 443 kts 282°
2026-05-06 00:08 29.46008 33.18574 43091 ft 442 kts 282°
2026-05-06 00:09 29.47901 33.11846 43095 ft 443 kts 282°
2026-05-06 00:09 29.49784 33.05138 42940 ft 445 kts 282°
2026-05-06 00:09 29.50722 33.01804 42829 ft 432 kts 282°
2026-05-06 00:10 29.51642 32.98545 42527 ft 429 kts 282°
2026-05-06 00:10 29.52562 32.95292 42373 ft 427 kts 282°
2026-05-06 00:10 29.53476 32.92053 42227 ft 425 kts 282°
2026-05-06 00:10 29.54380 32.88831 42088 ft 424 kts 282°
2026-05-06 00:11 29.55282 32.85597 41825 ft 425 kts 282°
2026-05-06 00:11 29.56169 32.82399 41567 ft 426 kts 282°
2026-05-06 00:11 29.57067 32.79156 41352 ft 426 kts 282°
2026-05-06 00:11 29.57966 32.75903 41150 ft 426 kts 282°
2026-05-06 00:12 29.58867 32.72653 40935 ft 426 kts 282°
2026-05-06 00:12 29.59769 32.69409 40713 ft 426 kts 281°
2026-05-06 00:12 29.60576 32.66143 40477 ft 424 kts 279°
2026-05-06 00:12 29.61322 32.62905 40270 ft 425 kts 279°
2026-05-06 00:13 29.62072 32.59614 40066 ft 425 kts 279°
2026-05-06 00:13 29.62818 32.56321 39848 ft 425 kts 279°
2026-05-06 00:13 29.63562 32.53025 39645 ft 425 kts 279°
2026-05-06 00:13 29.64304 32.49736 39426 ft 425 kts 279°
2026-05-06 00:14 29.65050 32.46431 39214 ft 425 kts 279°
2026-05-06 00:14 29.65783 32.43161 38847 ft 433 kts 279°
2026-05-06 00:14 29.66521 32.39826 37846 ft 424 kts 279°
2026-05-06 00:14 29.67239 32.36590 36901 ft 411 kts 280°
2026-05-06 00:15 29.67936 32.33454 36008 ft 401 kts 281°
2026-05-06 00:15 29.68625 32.30358 35118 ft 396 kts 282°
2026-05-06 00:15 29.69305 32.27296 34186 ft 394 kts 282°
2026-05-06 00:15 29.69983 32.24255 33140 ft 390 kts 282°
2026-05-06 00:16 29.70649 32.21275 32125 ft 386 kts 282°
2026-05-06 00:16 29.71314 32.18301 31144 ft 381 kts 282°
2026-05-06 00:16 29.71967 32.15379 30186 ft 372 kts 282°
2026-05-06 00:16 29.72605 32.12515 29091 ft 364 kts 282°
2026-05-06 00:17 29.73229 32.09711 28027 ft 357 kts 282°
2026-05-06 00:17 29.73839 32.06968 27000 ft 350 kts 282°
2026-05-06 00:17 29.74436 32.04276 26020 ft 345 kts 283°
2026-05-06 00:17 29.75020 32.01642 25078 ft 340 kts 283°
2026-05-06 00:18 29.75602 31.99014 24159 ft 336 kts 283°
2026-05-06 00:18 29.76176 31.96420 23182 ft 332 kts 283°
2026-05-06 00:18 29.76744 31.93855 22139 ft 328 kts 283°
2026-05-06 00:18 29.77304 31.91320 21140 ft 324 kts 283°
2026-05-06 00:19 29.77920 31.88869 20173 ft 321 kts 291°
2026-05-06 00:19 29.79094 31.86672 19276 ft 322 kts 306°
2026-05-06 00:19 29.80725 31.84895 18472 ft 329 kts 318°
2026-05-06 00:19 29.82630 31.83350 17561 ft 339 kts 321°
2026-05-06 00:20 29.84611 31.81838 16657 ft 344 kts 322°
2026-05-06 00:20 29.86630 31.80319 15773 ft 348 kts 322°
2026-05-06 00:20 29.88674 31.78779 14933 ft 350 kts 322°
2026-05-06 00:20 29.90689 31.77251 14108 ft 351 kts 322°
2026-05-06 00:21 29.92743 31.75750 13267 ft 348 kts 327°
2026-05-06 00:21 29.94999 31.74686 12634 ft 351 kts 339°
2026-05-06 00:21 29.97397 31.74219 12523 ft 347 kts 351°
2026-05-06 00:21 29.99776 31.74106 12228 ft 335 kts 354°
2026-05-06 00:22 30.02070 31.74073 11923 ft 323 kts 354°
2026-05-06 00:22 30.04286 31.74057 11625 ft 312 kts 355°
2026-05-06 00:22 30.06422 31.74039 11331 ft 302 kts 355°
2026-05-06 00:22 30.08464 31.74018 11010 ft 290 kts 355°
2026-05-06 00:23 30.10440 31.73995 10394 ft 280 kts 355°
2026-05-06 00:23 30.12368 31.73955 9659 ft 275 kts 355°
2026-05-06 00:23 30.14263 31.73901 8879 ft 270 kts 355°
2026-05-06 00:23 30.16126 31.73834 8134 ft 265 kts 355°
2026-05-06 00:24 30.17959 31.73754 7397 ft 261 kts 355°
2026-05-06 00:24 30.19742 31.73663 6687 ft 257 kts 355°
2026-05-06 00:24 30.21514 31.73557 5940 ft 253 kts 355°
2026-05-06 00:24 30.23266 31.73435 5194 ft 250 kts 354°
2026-05-06 00:25 30.24862 31.72831 4906 ft 238 kts 321°
2026-05-06 00:25 30.25742 31.71278 4845 ft 230 kts 283°
2026-05-06 00:25 30.25673 31.69477 4554 ft 222 kts 257°
2026-05-06 00:25 30.25232 31.67740 4478 ft 217 kts 253°
2026-05-06 00:26 30.24752 31.66180 4171 ft 202 kts 252°
2026-05-06 00:26 30.24265 31.64684 3768 ft 196 kts 251°
2026-05-06 00:26 30.23786 31.63247 3396 ft 186 kts 251°
2026-05-06 00:26 30.23324 31.61882 2933 ft 174 kts 251°
2026-05-06 00:27 30.22906 31.60658 2749 ft 150 kts 252°
2026-05-06 00:27 30.22533 31.59558 2777 ft 166 kts 252°
2026-05-06 00:27 30.22107 31.58304 2755 ft 168 kts 251°
2026-05-06 00:27 30.21678 31.57053 2715 ft 162 kts 251°
2026-05-06 00:28 30.21270 31.55864 2712 ft 157 kts 252°
2026-05-06 00:28 30.20800 31.54733 2735 ft 158 kts 240°
2026-05-06 00:28 30.20164 31.53701 2739 ft 158 kts 236°
2026-05-06 00:28 30.19502 31.52733 2715 ft 149 kts 233°
2026-05-06 00:29 30.18855 31.51837 2654 ft 151 kts 232°
2026-05-06 00:29 30.18159 31.50889 2429 ft 149 kts 232°
2026-05-06 00:29 30.17491 31.49985 2222 ft 146 kts 232°
2026-05-06 00:29 30.16829 31.49089 2044 ft 147 kts 232°
2026-05-06 00:30 30.16162 31.48187 1840 ft 147 kts 232°
2026-05-06 00:30 30.15507 31.47300 1634 ft 147 kts 232°
2026-05-06 00:30 30.14856 31.46407 1434 ft 145 kts 232°
2026-05-06 00:30 30.14216 31.45529 1252 ft 144 kts 232°
2026-05-06 00:31 30.13575 31.44637 986 ft 144 kts 231°
2026-05-06 00:31 30.12918 31.43768 682 ft 143 kts 231°
2026-05-06 00:31 30.12272 31.42899 428 ft 142 kts 230°
2026-05-06 00:31 30.11649 31.42050 379 ft 131 kts 227°
2026-05-06 00:32 30.11166 31.41406 378 ft 82 kts 230°
2026-05-06 00:32 30.10885 31.41048 377 ft 51 kts 227°
2026-05-06 00:32 30.10749 31.40843 379 ft 28 kts 252°
2026-05-06 00:32 30.10799 31.40697 379 ft 17 kts 316°
2026-05-06 00:33 30.10828 31.40573 379 ft 19 kts 236°
2026-05-06 00:33 30.10749 31.40475 379 ft 18 kts 226°
2026-05-06 00:33 30.10687 31.40387 379 ft 13 kts 240°
2026-05-06 00:33 30.10707 31.40290 379 ft 13 kts 288°
2026-05-06 00:34 30.10665 31.40200 379 ft 15 kts 228°
2026-05-06 00:34 30.10588 31.40101 379 ft 18 kts 228°
2026-05-06 00:34 30.10530 31.40025 379 ft 20 kts 229°
2026-05-06 00:34 30.10478 31.39925 379 ft 16 kts 268°
2026-05-06 00:35 30.10524 31.39864 379 ft 2 kts 339°
2026-05-06 00:35 30.10549 31.39853 379 ft 6 kts 339°
2026-05-06 00:35 30.10607 31.39832 379 ft 16 kts 343°
2026-05-06 00:35 30.10696 31.39868 379 ft 17 kts 77°
2026-05-06 00:36 30.10721 31.40014 379 ft 20 kts 71°
2026-05-06 00:36 30.10805 31.40117 379 ft 17 kts 13°
2026-05-06 00:36 30.10906 31.40191 379 ft 19 kts 48°
2026-05-06 00:36 30.10959 31.40278 379 ft 12 kts 73°
2026-05-06 00:37 30.10946 31.40379 379 ft 14 kts 110°
2026-05-06 00:37 30.10917 31.40493 379 ft 11 kts 91°
2026-05-06 00:37 30.10950 31.40573 379 ft 11 kts 50°
2026-05-06 00:37 30.10971 31.40602 379 ft 2 kts 49°
2026-05-06 00:38 30.11002 31.40630 379 ft 9 kts 16°
2026-05-06 00:38 30.11062 31.40594 379 ft 13 kts 316°
2026-05-06 00:38 30.11143 31.40508 379 ft 18 kts 320°
2026-05-06 00:38 30.11225 31.40432 379 ft 9 kts 320°
2026-05-06 00:39 30.11254 31.40378 379 ft 12 kts 317°
2026-05-06 00:39 30.11313 31.40253 379 ft 14 kts 281°
2026-05-06 00:39 30.11305 31.40174 379 ft 9 kts 236°
2026-05-06 00:39 30.11273 31.40154 379 ft 2 kts 215°
2026-05-06 00:40 30.11263 31.40147 379 ft 1 kts 216°
2026-05-06 00:40 30.11262 31.40146 379 ft 0 kts 216°